This demonstration page uses our WeatherBlox Daily Observations layout. Learn more.

Left ArrowRight Arrow

Hourly Observations for November 19, 2015

Temp ( °F °C ) Dew Point ( °F °C ) Humidity (%) Winds ( mph kmh ) Pressure ( in mb ) Visibility ( mi km ) Precip ( " mm )
12:51 am 00:51 Clear 40 4.4 32 undefined 73 73 SSE 3 6 30.02 1017 10 16.0934 N/A
1:51 am 01:51 Clear 37 2.8 31 -0.6 79 79 ESE 5 7 30.03 1017 10 16.0934 N/A
2:51 am 02:51 Clear 34 1.1 30 -1.1 85 85 N N/A 30.04 1017 10 16.0934 N/A
3:51 am 03:51 undefined 34 1.1 30 -1.1 85 85 undefined N/A 30.05 1018 N/A N/A
4:51 am 04:51 Clear 36 2.2 31 -0.6 82 82 SE 6 9 30.08 1019 10 16.0934 N/A
5:51 am 05:51 Clear 43 6.1 27 -2.8 53 53 SE 13 20 30.08 1019 10 16.0934 N/A
6:51 am 06:51 Clear 40 4.4 28 -2.2 63 63 SE 13 20 30.12 1020 10 16.0934 N/A
7:51 am 07:51 Sunny 45 7.2 27 -2.8 49 49 SE 12 19 30.11 1020 10 16.0934 N/A
8:51 am 08:51 Sunny 51 10.6 27 -2.8 39 39 SE 17 28 30.12 1020 10 16.0934 N/A
9:51 am 09:51 undefined 56 13.3 28 -2.2 34 34 undefined N/A 30.12 1020 N/A N/A
10:51 am 10:51 Sunny 61 16.1 30 -1.1 31 31 ESE 9 15 30.1 1019 10 16.0934 N/A
11:51 am 11:51 Sunny 63 17.2 30 -1.1 29 29 SSE 6 9 30.06 1018 10 16.0934 N/A
12:51 pm 12:51 Sunny 66 18.9 29 -1.7 25 25 VRB 5 7 30.03 1017 10 16.0934 N/A
1:51 pm 13:51 Sunny 67 19.4 28 -2.2 23 23 VRB 3 6 29.99 1016 10 16.0934 N/A
2:51 pm 14:51 Sunny 70 21.1 25 -3.9 18 18 SE 10 17 29.97 1015 10 16.0934 N/A
3:51 pm 15:51 Sunny 69 20.6 27 -2.8 21 21 S 10 17 29.96 1015 10 16.0934 N/A
4:51 pm 16:51 Sunny 67 19.4 27 -2.8 22 22 S 7 11 29.96 1015 10 16.0934 N/A
5:51 pm 17:51 Clear 57 13.9 28 -2.2 33 33 E 3 6 29.98 1015 10 16.0934 N/A
6:51 pm 18:51 Clear 52 11.1 28 -2.2 40 40 E 6 9 30.01 1016 10 16.0934 N/A
7:51 pm 19:51 Clear 55 12.8 27 -2.8 34 34 ESE 7 11 30.01 1016 10 16.0934 N/A
8:51 pm 20:51 Clear 54 12.2 27 -2.8 35 35 E 10 17 30.01 1016 10 16.0934 N/A
9:51 pm 21:51 Clear 49 9.4 29 -1.7 46 46 SE 9 15 30.01 1016 10 16.0934 N/A
10:51 pm 22:51 Clear 50 10 28 -2.2 43 43 E 12 19 30.01 1016 10 16.0934 N/A
11:51 pm 23:51 Clear 49 9.4 28 -2.2 44 44 ESE 7 11 30.01 1016 10 16.0934 N/A

Powered by AerisWeather